Regional Weather Roundup
Issued by NWS

Home | Current Version | Previous Version | Graphics & Text | Print | Product List | Glossary On
Versions: 1 2 3 4 5 6 7 8 9 10 11 12 13 14 15 16 17 18 19 20 21 22 23 24 25 26 27 28 29 30 31 32 33 34 35 36 37 38 39 40 41 42 43 44 45 46 47 48 49 50
000
ASUS43 KDMX 022101
RWRIA

WEATHER ROUNDUP FOR IOWA
NATIONAL WEATHER SERVICE DES MOINES IA
300 PM CST FRI DEC 02 2016

NOTE: "FAIR" INDICATES FEW OR NO CLOUDS BELOW 12,000 FEET WITH NO
SIGNIFICANT WEATHER AND/OR OBSTRUCTIONS TO VISIBILITY.

* - THESE STATIONS ARE NOT NWS STATIONS...THUS NOT UNDER NWS
QUALITY CONTROL.  THEY ALSO DO NOT REPORT WEATHER SUCH
AS PRECIPITATION OR FOG.

IAZ001>003-012>014-020>022-031>034-043>046-022200-
   NORTHWEST IOWA

CITY           SKY/WX    TMP DP  RH WIND       PRES   REMARKS
CARROLL *      CLOUDY    36  34  93 N9        30.28S WCI  29
CHEROKEE *     CLOUDY    35  29  80 CALM      30.30R
DENISON *      CLOUDY    37  32  81 W5        30.26F WCI  34
LE MARS *      CLOUDY    36  30  80 CALM      30.31R
ORANGE CITY *  CLOUDY    34  28  80 CALM      30.28R
SHELDON *      CLOUDY    34  28  80 NW8       30.26R WCI  27
SIOUX CITY     CLOUDY    40  30  67 W6        30.29F
SPENCER        CLOUDY    33  24  69 NW15      30.28R WCI  23
STORM LAKE *     N/A     36  28  75 NW5       30.28R WCI  32
$$

IAZ055>058-069>071-079>083-090>094-022200-
   SOUTHWEST IOWA

CITY           SKY/WX    TMP DP  RH WIND       PRES   REMARKS
ATLANTIC *     CLOUDY    37  30  75 NW6       30.29R WCI  33
AUDUBON *      CLOUDY    37  30  75 NW5       30.28F WCI  34
CLARINDA *       N/A     43  32  65 NW5G12    30.30S
COUNCIL BLFS * PTSUNNY   39  30  70 N8        30.29R WCI  34
CRESTON *      PTSUNNY   41  32  70 NW10      30.27R
HARLAN  *      PTSUNNY   37  30  75 NW8       30.31S WCI  31
LAMONI         MOSUNNY   44  30  57 NW8       30.26R
RED OAK *      MOSUNNY   41  32  70 N8        30.29R
SHENANDOAH *   SUNNY     43  30  61 VRB7      30.29S
$$

IAZ047>049-059>061-072>074-084-022200-
   CENTRAL IOWA

CITY           SKY/WX    TMP DP  RH WIND       PRES   REMARKS
AMES           CLOUDY    38  32  79 NW8       30.28S WCI  32
ANKENY *       CLOUDY    39  34  81 N8        30.28F WCI  34
BOONE *        CLOUDY    36  32  87 NW9       30.27S WCI  29
CHARITON *       N/A     41  32  70 NW6       30.26R
DES MOINES     CLOUDY    40  31  70 W5        30.27F
GRINNELL*      CLOUDY    38  30  74 NW9       30.28R WCI  31
KNOXVILLE *    CLOUDY    39  30  70 W7        30.25F WCI  34
MARSHALLTOWN   CLOUDY    36  29  75 NW12      30.28R WCI  28
NEWTON *       CLOUDY    37  30  75 NW8       30.27S WCI  31
PELLA *        CLOUDY    39  32  75 N7        30.28F WCI  34
PERRY *        CLOUDY    38  35  87 N12       30.28S WCI  31
$$

IAZ004>006-015-016-023>025-035-036-022200-
   NORTH CENTRAL IOWA

CITY           SKY/WX    TMP DP  RH WIND       PRES   REMARKS
ALGONA *       CLOUDY    34  25  69 NW10G17   30.28R WCI  26
CLARION *      CLOUDY    36  28  75 NW10      30.28R WCI  28
ESTHERVILLE    CLOUDY    30  26  85 NW10      30.28R WCI  21
FORT DODGE *   CLOUDY    36  27  69 NW7       30.30R WCI  30
MASON CITY     CLOUDY    31  23  72 NW10      30.28R WCI  22
WEBSTER CITY * CLOUDY    36  32  87 NW12      30.27R WCI  27
IOWA FALLS *   CLOUDY    35  29  80 NW5       30.29R WCI  31
$$

IAZ007>011-017>019-026>030-037>042-050>054-066-022200-
   NORTHEAST IOWA

CITY           SKY/WX    TMP DP  RH WIND       PRES   REMARKS
CEDAR RAPIDS   CLOUDY    35  29  78 NW14      30.27R WCI  26
CHARLES CITY * CLOUDY    32  25  74 NW10G16   30.27R WCI  24
CLINTON *      CLOUDY    37  28  70 NW13      30.26R WCI  29
DECORAH *      CLOUDY    32  23  69 NW6       30.23R WCI  26
DUBUQUE        CLOUDY    34  25  69 NW12      30.24R WCI  25
MONTICELLO *   CLOUDY    34  27  75 W3G17     30.27R
OELWEIN *      CLOUDY    32  25  74 W8        30.27R WCI  25
WATERLOO       CLOUDY    33  24  69 NW8       30.28R WCI  26
$$

IAZ064-065-067-068-078-022200-
   EAST CENTRAL IOWA

CITY           SKY/WX    TMP DP  RH WIND       PRES   REMARKS
DAVENPORT      CLOUDY    37  28  70 NW12      30.26R WCI  29
IOWA CITY      CLOUDY    39  28  64 NW9       30.29R WCI  33
MUSCATINE *    CLOUDY    41  28  60 NW12      30.29R
QUAD CITIES    CLOUDY    40  27  59 NW10      30.26R WCI  33
$$

IAZ062-063-075>077-085>089-095>099-022200-
   SOUTHEAST IOWA

CITY           SKY/WX    TMP DP  RH WIND       PRES   REMARKS
BURLINGTON     CLOUDY    41  32  70 NW8       30.26R
FAIRFIELD *    CLOUDY    41  30  65 N9        30.26S
FORT MADISON * CLOUDY    43  34  70 NW9       30.27S
KEOKUK *       CLOUDY    45  32  61 N6G12     30.26R
OSKALOOSA *    CLOUDY    40  31  71 N12       30.27S WCI  33
CENTERVILLE *  CLOUDY    43  32  65 CALM      30.28R
OTTUMWA        CLOUDY    42  30  62 NW9       30.27R
WASHINGTON *   CLOUDY    39  30  70 NW9       30.29R WCI  33
$$

ABBREVIATIONS USED IN REMARKS
   TC - TEMPERATURES IN CELSIUS
  WCI - WIND CHILL INDEX
   HX - HEAT INDEX
  VSB - VISIBILITY
$$





USA.gov is the U.S. government's official web portal to all federal, state and local government web resources and services.